User: anonymous   Login
Location: Unspecified
(0.0000°N, 0.0000°E)
Time: 09:02:41
(UTC+00:00)
Language:

GOES 1 - Orbit

View from above orbital plane
View from above orbital plane
View from above satellite
View from above satellite

Ground track
Ground track

The orbit data is extracted from the following two-line orbital elements,

1  8366U 75100A   19345.37009775 -.00000209 +00000-0 +00000-0 0  9998
2  8366 010.3641 307.3777 0005065 327.4140 216.7722 01.00284049161341
Epoch (UTC): 11 December 2019 08:52:56
Eccentricity: 0.0005065
inclination: 10.3641°
perigee height: 35761 km
apogee height: 35804 km
right ascension of ascending node: 307.3777°
argument of perigee: 327.4140°
revolutions per day: 1.00284049
mean anomaly at epoch: 216.7722°
orbit number at epoch: 16134

The dashed part of the orbit path shows where the satellite is in the earth's shadow,  

DLR